CZ-6A DEB, 60708

Orbit data source: Space-Track

CZ-6A DEB, 60708 is space debris in LEO originally from a launch on Tue, 06 Aug 2024 UTC launched from the Taiyaun Space Center, China (TSC). Debris objects in space refer to the collection of defunct objects orbiting the Earth. Examples of debris include non-operational satellites, rocket bodies, and fragments generated from explosions, collisions, or faulty payload assembly.

Loading next visibility...
Identifier
60708, 2024-140DM
Orbit
LEO
Country
Flag of CNCN / PRC
Related business
Manufacturer
SAST
Mission
Spacecraft
Bus & Motor
Unknown
Mass
Unknown
Launch date (UTC)
2024-08-06 (2 years ago)
Launch vehicle
Unknown
Launch site
Taiyaun Space Center, China (TSC)
Object type
Payload
Rocket body
Debris
Shape & HBR
Unknown shape, 0.3 m
Radar Cross Section
Medium (>0.1 m² and <1 m²)

Expand to show TLE details & history
Last TLE update: 13 hours ago

TLE from 13 hours ago
0 CZ-6A DEB
1 60708U 24140DM  26118.44616275  .00001830  00000-0  69593-3 0  9992
2 60708  88.9998 279.6121 0041995  32.5633 327.8139 14.30127388 89111
Epoch: 2026-04-28T10:42Z
TLE epoch observation values (Epoch: 2026-04-28T10:42:28.461Z)
Latitude
-0.00009°
Longitude
-97.42785°
Altitude
768.922 km
Speed
7.483 km/s
True Right ascension
18h 38m 26s
True Declination
0° 00' 00"
Sunlit
Object was in daylight at epoch
Visualization orbit readout
Latitude
Unknown
Longitude
Unknown
Altitude
Unknown
Speed
Unknown
Apparent Right ascension
Unknown
Apparent Declination
Unknown
Sunlit
N/A
Visualization observer readout
Local Sidereal Time
07:30:22
Azimuth
Unknown
Elevation
Unknown
Doppler factor
Unknown
Orbital elements
Apogee altitude
818.337 km
Perigee altitude
758.146 km
Semi-major axis
7,166.379 km
Eccentricity
0.0042
Inclination
88.9998°
RAAN
279.6121°
Arg. of periapsis
32.5633°
True anomaly
327.55642°
Mean anomaly
327.8139°
Eccentric anomaly
327.68528°
Mean motion
3.57761 °/min
Orbital period
100.63 mins
BSTAR
0.00069593
Loading maneuver chart data...
Computing Atmospheric mass density...
Loading historical data...
Loading historical data...
Loading historical data...
Loading historical data...
Loading historical data...
Loading historical data...
Loading historical data...

Documentation

Showing up to 5 results
|